Location: Newark
(7.1028°S, 35.3258°W)
Time: 18:35:47
(UTC+00:00)

Vanguard 3 - Pass Details

Date: 19 February 2020
Orbit: 508 x 3263 km, 33.4° (Epoch: 02 April)

Event Time Altitude Azimuth Distance (km) Brightness Sun altitude
Rises 22:19:47 0° 294° (WNW) 7,058 12.7 -23.9°
Reaches altitude 10° 22:24:31 10° 290° (WNW) 6,154 12.3 -25.0°
Maximum altitude 22:44:09 60° 215° (SW) 3,302 10.2 -29.7°
Drops below altitude 10° 22:59:00 10° 136° (SE) 4,781 10.8 -33.2°
Enters shadow 22:59:59 - 135° (SE) 4,985 10.9 -33.4°
Sets 23:02:11 0° 132° (SE) 5,467 - -34.0°
